FW7858 Weather Reports


time (UTC)temp
F
wind
direction
speed
knots
gust
knots
rain 1hr
in
rain 24hr
in
rain mn
in
humidity
%
barometer
mb
20260504100510 48 360 2.6 4.3 0.00 0.00 0.00 71 995.1
20260504090120 49 360 0.0 4.3 0.00 0.00 0.00 70 995.0
20260504081554 51 360 2.6 9.6 0.00 0.00 0.00 66 995.2
20260504081049 52 360 3.5 9.6 0.00 0.00 0.00 65 995.0
20260504080551 52 360 3.5 9.6 0.00 0.00 0.00 64 995.0
20260504050512 58 262 13.9 20.9 0.00 0.00 0.00 46 994.4
20260504050015 59 265 13.9 20.9 0.00 0.00 0.00 45 994.5
20260504045509 59 254 14.8 18.2 0.00 0.00 0.00 45 994.6
20260504045012 59 249 13.9 18.2 0.00 0.00 0.00 45 994.8
20260504044519 59 264 13.9 16.5 0.00 0.00 0.00 45 994.9
20260504044007 59 267 12.2 17.4 0.00 0.00 0.00 45 995.1
20260504043507 59 263 13.0 20.9 0.00 0.00 0.00 44 995.1
20260504043006 59 259 13.0 20.0 0.00 0.00 0.00 44 995.2
20260504042506 59 269 13.9 20.0 0.00 0.00 0.00 44 995.4
20260504042008 60 271 12.2 17.4 0.00 0.00 0.00 44 995.5
20260504041504 60 259 13.9 17.4 0.00 0.00 0.00 43 995.6
20260504041003 60 258 13.0 20.0 0.00 0.00 0.00 43 995.7
20260504040503 60 269 13.0 18.2 0.00 0.00 0.00 43 995.8
20260504040002 60 254 12.2 18.2 0.00 0.00 0.00 43 995.9
20260504035501 60 254 12.2 18.2 0.00 0.00 0.00 42 996.0
20260504035100 60 254 13.0 16.5 0.00 0.00 0.00 42 996.0
20260504034605 60 255 12.2 18.2 0.00 0.00 0.00 43 996.2
20260504034059 60 253 12.2 18.2 0.00 0.00 0.00 43 996.4
20260504033558 60 244 13.0 18.2 0.00 0.00 0.00 43 996.5
20260504033114 60 241 12.2 16.5 0.00 0.00 0.00 43 996.6
20260504032600 60 243 11.3 16.5 0.00 0.00 0.00 43 996.7
20260504032056 60 252 12.2 15.6 0.00 0.00 0.00 43 996.8
20260504031555 60 252 11.3 14.8 0.00 0.00 0.00 43 996.9
20260504031053 60 253 11.3 16.5 0.00 0.00 0.00 43 997.1
20260504030555 61 254 12.2 17.4 0.00 0.00 0.00 43 997.2
20260504030052 61 250 12.2 17.4 0.00 0.00 0.00 43 997.2
20260504025552 61 254 11.3 13.9 0.00 0.00 0.00 43 997.3
20260504025052 61 248 10.4 14.8 0.00 0.00 0.00 42 997.3
20260504024551 61 259 11.3 15.6 0.00 0.00 0.00 42 997.3
20260504024051 61 252 12.2 15.6 0.00 0.00 0.00 41 997.4
20260504023550 61 248 11.3 16.5 0.00 0.00 0.00 42 997.5
20260504023051 62 228 11.3 16.5 0.00 0.00 0.00 42 997.5
20260504022549 62 259 10.4 14.8 0.00 0.00 0.00 41 997.6
20260504022052 62 257 11.3 14.8 0.00 0.00 0.00 41 997.8
20260504021547 62 250 10.4 14.8 0.00 0.00 0.00 40 997.8
20260504021046 62 255 10.4 13.9 0.00 0.00 0.00 40 997.9
20260504020545 62 256 9.6 13.9 0.00 0.00 0.00 40 998.0
20260504020045 62 250 8.7 12.2 0.00 0.00 0.00 39 998.1
20260504015544 62 259 8.7 13.0 0.00 0.00 0.00 39 998.2
20260504015047 62 249 9.6 13.9 0.00 0.00 0.00 38 998.3
20260504014542 63 266 9.6 13.9 0.00 0.00 0.00 38 998.4
20260504014042 63 256 8.7 11.3 0.00 0.00 0.00 38 998.5
20260504013540 63 258 8.7 11.3 0.00 0.00 0.00 37 998.6
20260504013043 63 265 7.0 10.4 0.00 0.00 0.00 37 998.7
20260504012544 63 275 7.8 10.4 0.00 0.00 0.00 37 998.9
20260504012039 64 275 7.8 12.2 0.00 0.00 0.00 37 999.0
20260504011538 65 289 7.8 12.2 0.00 0.00 0.00 36 999.0
20260504011036 66 272 8.7 12.2 0.00 0.00 0.00 35 999.1
20260504010535 67 273 7.8 14.8 0.00 0.00 0.00 33 999.2
20260504010046 67 293 11.3 16.5 0.00 0.00 0.00 33 999.3
20260504005533 67 272 9.6 16.5 0.00 0.00 0.00 33 999.5
20260504005033 68 291 11.3 16.5 0.00 0.00 0.00 32 999.5
20260504004532 68 281 12.2 19.1 0.00 0.00 0.00 31 999.6
20260504004033 68 277 13.0 19.1 0.00 0.00 0.00 32 999.7
20260504003531 68 263 12.2 19.1 0.00 0.00 0.00 31 999.7
20260504003030 69 288 13.9 19.1 0.00 0.00 0.00 31 999.7
20260504002531 69 293 11.3 18.2 0.00 0.00 0.00 31 999.8
20260504002029 69 300 12.2 18.2 0.00 0.00 0.00 31 1000.0
20260504001529 69 313 10.4 15.6 0.00 0.00 0.00 32 1000.1
20260504001029 69 279 10.4 14.8 0.00 0.00 0.00 31 1000.1
20260504000530 69 306 10.4 13.9 0.00 0.00 0.00 32 1000.2
20260504000026 69 279 9.6 16.5 0.00 0.00 0.00 32 1000.3
20260503235525 69 298 11.3 26.1 0.00 0.00 0.00 31 1000.4
20260503235025 69 300 15.6 26.1 0.00 0.00 0.00 31 1000.4
20260503234526 70 298 13.9 21.7 0.00 0.00 0.00 30 1000.6
20260503234024 70 298 14.8 21.7 0.00 0.00 0.00 30 1000.6
20260503233523 70 284 12.2 21.7 0.00 0.00 0.00 32 1000.6
20260503233024 70 303 15.6 21.7 0.00 0.00 0.00 31 1000.6
20260503232522 70 308 13.9 18.2 0.00 0.00 0.00 31 1000.7
20260503232025 70 300 13.9 17.4 0.00 0.00 0.00 31 1000.7
20260503231522 70 289 11.3 17.4 0.00 0.00 0.00 32 1000.7
20260503231021 70 294 12.2 17.4 0.00 0.00 0.00 30 1000.8
20260503230519 70 304 12.2 18.2 0.00 0.00 0.00 31 1001.0
20260503230022 69 294 12.2 20.0 0.00 0.00 0.00 31 1001.0
20260503225516 69 296 11.3 19.1 0.00 0.00 0.00 31 1001.2
20260503225015 69 292 13.0 20.0 0.00 0.00 0.00 31 1001.3
20260503224515 69 287 13.0 20.0 0.00 0.00 0.00 32 1001.5
20260503224023 69 284 11.3 17.4 0.00 0.00 0.00 32 1001.6
20260503223516 69 326 11.3 17.4 0.00 0.00 0.00 33 1001.7
20260503223014 69 287 9.6 15.6 0.00 0.00 0.00 33 1001.8
20260503222513 69 306 7.8 17.4 0.00 0.00 0.00 33 1001.9
20260503222013 69 292 6.1 20.0 0.00 0.00 0.00 34 1001.9
20260503221518 69 294 11.3 20.0 0.00 0.00 0.00 33 1002.0
20260503221012 69 300 11.3 17.4 0.00 0.00 0.00 32 1001.9
20260503220511 69 296 1.7 17.4 0.00 0.00 0.00 33 1002.0
20260503220010 68 310 7.0 17.4 0.00 0.00 0.00 33 1002.1
20260503215510 69 293 12.2 17.4 0.00 0.00 0.00 31 1002.2
20260503215011 69 309 7.0 13.9 0.00 0.00 0.00 32 1002.3
20260503214508 69 304 6.1 18.2 0.00 0.00 0.00 32 1002.5
20260503214012 69 299 14.8 18.2 0.00 0.00 0.00 31 1002.5
20260503213505 69 280 10.4 21.7 0.00 0.00 0.00 32 1002.6
20260503213008 69 294 14.8 21.7 0.00 0.00 0.00 30 1002.5
20260503212503 69 285 9.6 16.5 0.00 0.00 0.00 31 1002.6
20260503212002 68 306 11.3 19.1 0.00 0.00 0.00 30 1002.8
20260503211501 68 281 12.2 19.1 0.00 0.00 0.00 30 1003.0
20260503211102 68 296 13.9 17.4 0.00 0.00 0.00 31 1002.9
20260503210600 69 303 7.0 16.5 0.00 0.00 0.00 30 1003.2
20260503210058 68 306 10.4 14.8 0.00 0.00 0.00 32 1003.3
20260503205557 68 325 5.2 17.4 0.00 0.00 0.00 30 1003.4
20260503205101 68 287 12.2 20.9 0.00 0.00 0.00 29 1003.5
20260503204557 68 283 7.0 20.9 0.00 0.00 0.00 31 1003.8
20260503204053 68 304 13.9 20.9 0.00 0.00 0.00 30 1003.8
20260503203552 68 348 11.3 20.9 0.00 0.00 0.00 32 1004.1
20260503203051 67 271 7.8 20.9 0.00 0.00 0.00 32 1004.1
20260503202550 67 315 9.6 20.9 0.00 0.00 0.00 31 1004.4
20260503202050 67 289 8.7 20.9 0.00 0.00 0.00 33 1004.4
20260503201548 67 303 11.3 15.6 0.00 0.00 0.00 31 1004.5
20260503201053 67 34 8.7 16.5 0.00 0.00 0.00 34 1004.6
20260503200549 67 312 10.4 16.5 0.00 0.00 0.00 34 1004.7
20260503200046 66 279 9.6 15.6 0.00 0.00 0.00 33 1004.7
20260503195545 67 300 6.1 15.6 0.00 0.00 0.00 33 1004.8
20260503195047 67 292 7.8 15.6 0.00 0.00 0.00 35 1005.0
20260503194547 66 292 9.6 14.8 0.00 0.00 0.00 34 1005.1
20260503194043 66 300 7.8 13.9 0.00 0.00 0.00 34 1005.1
20260503193543 66 309 7.0 14.8 0.00 0.00 0.00 35 1005.2
20260503193049 65 289 9.6 14.8 0.00 0.00 0.00 34 1005.3
20260503192540 65 299 7.0 13.0 0.00 0.00 0.00 36 1005.4
20260503192043 65 303 5.2 17.4 0.00 0.00 0.00 36 1005.6
20260503191539 65 301 11.3 17.4 0.00 0.00 0.00 35 1005.6
20260503191038 65 300 5.2 15.6 0.00 0.00 0.00 36 1005.7
20260503190537 65 298 7.8 15.6 0.00 0.00 0.00 36 1006.0
20260503190038 65 290 5.2 12.2 0.00 0.00 0.00 36 1006.1
20260503185535 65 340 5.2 10.4 0.00 0.00 0.00 37 1006.1
20260503185036 64 59 1.7 7.8 0.00 0.00 0.00 37 1006.2
20260503184533 64 35 2.6 14.8 0.00 0.00 0.00 38 1006.3
20260503184033 64 292 8.7 13.0 0.00 0.00 0.00 37 1006.3
20260503183532 64 5 3.5 14.8 0.00 0.00 0.00 38 1006.5
20260503183037 64 303 5.2 14.8 0.00 0.00 0.00 37 1006.6
20260503182530 64 49 5.2 12.2 0.00 0.00 0.00 40 1006.8
20260503182028 64 341 1.7 8.7 0.00 0.00 0.00 39 1006.9
20260503181549 63 11 0.9 7.8 0.00 0.00 0.00 38 1007.0
20260503181028 63 74 2.6 8.7 0.00 0.00 0.00 43 1007.2
20260503180528 62 10 2.6 8.7 0.00 0.00 0.00 41 1007.1
20260503180027 62 53 2.6 10.4 0.00 0.00 0.00 40 1007.1
20260503175524 62 313 6.1 10.4 0.00 0.00 0.00 37 1007.2
20260503175022 62 61 1.7 7.8 0.00 0.00 0.00 41 1007.3
20260503174522 62 43 1.7 9.6 0.00 0.00 0.00 41 1007.4
20260503174021 62 46 3.5 11.3 0.00 0.00 0.00 39 1007.4
20260503173522 62 327 4.3 11.3 0.00 0.00 0.00 39 1007.7
20260503173120 61 302 3.5 13.9 0.00 0.00 0.00 39 1007.7
20260503172518 61 346 3.5 13.9 0.00 0.00 0.00 39 1007.8
20260503172019 61 323 4.3 8.7 0.00 0.00 0.00 39 1007.8
20260503171517 61 28 2.6 8.7 0.00 0.00 0.00 40 1007.9
20260503171016 61 61 3.5 8.7 0.00 0.00 0.00 44 1008.1
20260503170517 61 70 1.7 9.6 0.00 0.00 0.00 40 1008.1
20260503150550 57 76 2.6 7.8 0.00 0.00 0.00 40 1008.5
20260503131032 46 360 2.6 5.2 0.00 0.00 0.00 72 1008.4
20260503130533 46 360 1.7 7.0 0.00 0.00 0.00 75 1008.4
20260503110517 42 360 0.0 2.6 0.00 0.00 0.00 82 1007.1